Terug naar catalogus

STARLINK-1577

ActiefCommunicatieVLEO
NORAD 46063·PAYLOAD·🇺🇸 United States

Gelanceerd Aug 7, 2020 vanaf Cape Canaveral Space Force Station

Loading…

Volgende Passages (komende 24 uur)

TLE

VersSource: CelesTrak SupGP

Epoch: Sep 15, 2026, 02:40 UTC

1 46063C 20055AN  26258.11159722  .00041231  00000+0  13253-2 0  2586
2 46063  53.1571 312.3498 0001253  98.8132 238.9007 15.31696916    12

Volg STARLINK-1577 in realtime met AllMySat

Download on the App Store